Altoona, PA

7:08 AM EST on November 17, 2019 (GMT -0500)
Altoona-Blair County

Weather History for KAOO - September, 2019

Change the Weather History Date:

Thursday, September 5, 2019

  Actual Average Record
Temperature  
Mean Temperature 61 °F 66 °F  
Max Temperature 70 °F 76 °F 94 °F (1985)
Min Temperature 51 °F 55 °F 40 °F (1982)
Degree Days  
Heating Degree Days 4 2  
Month to date heating degree days 4 10  
Since 1 July heating degree days 13 42  
Cooling Degree Days 0 3  
Month to date cooling degree days 18 15  
Year to date cooling degree days 663 494  
Growing Degree Days 10 (Base 50)    
Moisture  
Dew Point 53 °F    
Average Humidity 79    
Maximum Humidity 96    
Minimum Humidity 61    
Precipitation  
Precipitation 0.00 in 0.12 in 1.69 in (1979)
Month to date precipitation 0.55 0.59  
Year to date precipitation 30.24 24.52  
Sea Level Pressure  
Sea Level Pressure 30.10 in    
Wind  
Wind Speed 3 mph (NE)    
Max Wind Speed 9 mph    
Max Gust Speed 11 mph    
Visibility 8 miles    
Events Fog    
T = Trace of Precipitation, MM = Missing Value Source: NWS Daily Summary

Daily Weather History Graph

Daily Weather History Graph

Search for Another Location

Airport or City:

Astronomy

Sep. 05, 2019 Rise Set
Actual Time 6:44 AM EDT 7:38 PM EDT
Civil Twilight 6:16 AM EDT 8:06 PM EDT
Nautical Twilight 5:43 AM EDT 8:39 PM EDT
Astronomical Twilight 5:09 AM EDT 9:13 PM EDT
Moon 1:50 PM EDT (9/5) 11:52 PM EDT (9/5)
Length of Visible Light 13h 50m
Length of Day
12h 54m
Waxing Crescent, 45% of the Moon is Illuminated
Sep 5
Waxing Crescent
Sep 5
First Quarter
Sep 14
Full
Sep 21
Last Quarter
Sep 28
New

Hourly Weather History & Observations

Time (EDT) Temp. Dew Point Humidity Pressure Visibility Wind Dir Wind Speed Gust Speed Precip Events Conditions
12:53 AM 60.1 °F 55.0 °F 83% 30.07 in 10.0 mi ENE 3.5 mph - N/A   Clear
1:53 AM 57.0 °F 54.0 °F 89% 30.10 in 10.0 mi Calm Calm - N/A   Clear
2:53 AM 55.9 °F 53.1 °F 90% 30.08 in 10.0 mi NNE 3.5 mph - N/A   Clear
3:53 AM 54.0 °F 51.1 °F 90% 30.09 in 10.0 mi Calm Calm - N/A   Clear
4:53 AM 53.1 °F 50.0 °F 89% 30.09 in 10.0 mi Calm Calm - N/A   Clear
5:53 AM 51.1 °F 48.9 °F 92% 30.10 in 5.0 mi Calm Calm - N/A   Clear
6:40 AM 52.0 °F 50.0 °F 93% 30.11 in 2.5 mi ESE 3.5 mph - N/A   Partly Cloudy
6:42 AM 52.0 °F 50.0 °F 93% 30.11 in 1.0 mi SE 3.5 mph - N/A   Mist
6:49 AM 51.8 °F 50.0 °F 94% 30.12 in 0.5 mi East 3.5 mph - N/A Fog Fog
6:53 AM 52.0 °F 50.0 °F 93% 30.11 in 1.0 mi Calm Calm - N/A   Mist
6:55 AM 52.0 °F 50.0 °F 93% 30.12 in 3.0 mi Calm Calm - N/A   Partly Cloudy
7:53 AM 54.0 °F 52.0 °F 93% 30.13 in 8.0 mi Calm Calm - N/A   Clear
8:53 AM 57.9 °F 55.0 °F 90% 30.13 in 10.0 mi Calm Calm - N/A   Clear
9:53 AM 61.0 °F 55.0 °F 81% 30.14 in 10.0 mi NE 4.6 mph - N/A   Clear
10:53 AM 63.0 °F 53.1 °F 70% 30.14 in 10.0 mi NE 4.6 mph - N/A   Partly Cloudy
11:53 AM 66.0 °F 54.0 °F 65% 30.12 in 10.0 mi Variable 4.6 mph - N/A   Scattered Clouds
12:53 PM 66.9 °F 54.0 °F 63% 30.12 in 10.0 mi Variable 3.5 mph - N/A   Overcast
1:53 PM 68.0 °F 55.0 °F 63% 30.12 in 10.0 mi North 3.5 mph - N/A   Mostly Cloudy
2:53 PM 70.0 °F 55.9 °F 61% 30.09 in 10.0 mi Variable 3.5 mph - N/A   Clear
3:53 PM 70.0 °F 55.9 °F 61% 30.07 in 10.0 mi NE 3.5 mph - N/A   Clear
4:53 PM 69.1 °F 55.9 °F 63% 30.07 in 10.0 mi NNE 6.9 mph - N/A   Clear
5:53 PM 68.0 °F 55.9 °F 65% 30.07 in 10.0 mi NNE 5.8 mph - N/A   Clear
6:53 PM 68.0 °F 55.9 °F 65% 30.07 in 10.0 mi NNE 4.6 mph - N/A   Clear
7:53 PM 63.0 °F 55.9 °F 78% 30.08 in 10.0 mi Calm Calm - N/A   Clear
8:53 PM 61.0 °F 55.9 °F 83% 30.07 in 10.0 mi Calm Calm - N/A   Mostly Cloudy
9:53 PM 59.0 °F 55.0 °F 87% 30.06 in 10.0 mi ENE 3.5 mph - N/A   Partly Cloudy
10:53 PM 59.0 °F 55.0 °F 87% 30.05 in 10.0 mi NNE 3.5 mph - N/A   Clear
11:53 PM 57.0 °F 54.0 °F 89% 30.04 in 10.0 mi East 4.6 mph - N/A   Clear